York, NE

8:44 PM CDT on October 21, 2019 (GMT -0500)
York Municipal

Weather History for KJYR - August, 2019

Change the Weather History Date:

Tuesday, August 27, 2019

  Actual Average Record
Temperature  
Mean Temperature 61 °F -  
Max Temperature 69 °F 84 °F 103 °F (1955)
Min Temperature 53 °F 61 °F 46 °F (1967)
Degree Days  
Heating Degree Days 4    
Growing Degree Days 11 (Base 50)    
Moisture  
Dew Point 56 °F    
Average Humidity 84    
Maximum Humidity 100    
Minimum Humidity 60    
Precipitation  
Precipitation 0.00 in - - ()
Sea Level Pressure  
Sea Level Pressure 30.07 in    
Wind  
Wind Speed 7 mph (WNW)    
Max Wind Speed 13 mph    
Max Gust Speed 18 mph    
Visibility 10 miles    
Events      
Averages and records for this station are not official NWS values.
T = Trace of Precipitation, MM = Missing Value Source: NWS Daily Summary

Daily Weather History Graph

Daily Weather History Graph

Search for Another Location

Airport or City:

Astronomy

Aug. 27, 2019 Rise Set
Actual Time 6:52 AM CDT 8:11 PM CDT
Civil Twilight 6:23 AM CDT 8:39 PM CDT
Nautical Twilight 5:49 AM CDT 9:13 PM CDT
Astronomical Twilight 5:13 AM CDT 9:49 PM CDT
Moon 3:16 AM CDT (8/27) 6:34 PM CDT (8/27)
Length of Visible Light 14h 15m
Length of Day
13h 18m
Waning Crescent, 11% of the Moon is Illuminated
Aug 27
Waning Crescent
Aug 30
New
Sep 5
First Quarter
Sep 13
Full
Sep 21
Last Quarter

Hourly Weather History & Observations

Time (CDT) Temp. Dew Point Humidity Pressure Visibility Wind Dir Wind Speed Gust Speed Precip Events Conditions
12:15 AM 59.0 °F 57.2 °F 94% 29.98 in 10.0 mi NW 6.9 mph - N/A   Clear
12:35 AM 59.0 °F 57.2 °F 94% 29.98 in 10.0 mi WNW 8.1 mph - N/A   Clear
12:55 AM 59.0 °F 55.4 °F 88% 29.99 in 10.0 mi WNW 5.8 mph - N/A   Clear
1:15 AM 57.2 °F 55.4 °F 94% 29.99 in 10.0 mi WNW 5.8 mph - N/A   Clear
1:35 AM 57.2 °F 55.4 °F 94% 29.99 in 10.0 mi WNW 4.6 mph - N/A   Clear
1:55 AM 57.2 °F 55.4 °F 94% 30.00 in 10.0 mi Calm Calm - N/A   Clear
2:35 AM 55.4 °F 53.6 °F 94% 30.00 in 10.0 mi WSW 4.6 mph - N/A   Clear
2:55 AM 55.4 °F 55.4 °F 100% 30.00 in 10.0 mi West 5.8 mph - N/A   Clear
3:15 AM 55.4 °F 53.6 °F 94% 30.00 in 10.0 mi West 5.8 mph - N/A   Clear
3:40 AM 53.6 °F 53.6 °F 100% 30.01 in 10.0 mi Calm Calm - N/A   Clear
3:55 AM 53.6 °F 53.6 °F 100% 30.01 in 10.0 mi West 5.8 mph - N/A   Clear
4:15 AM 55.4 °F 53.6 °F 94% 30.01 in 10.0 mi West 6.9 mph - N/A   Clear
4:35 AM 53.6 °F 53.6 °F 100% 30.01 in 10.0 mi West 6.9 mph - N/A   Clear
4:55 AM 53.6 °F 53.6 °F 100% 30.01 in 10.0 mi WNW 8.1 mph - N/A   Clear
5:15 AM 55.4 °F 53.6 °F 94% 30.01 in 10.0 mi WNW 8.1 mph - N/A   Clear
5:35 AM 55.4 °F 53.6 °F 94% 30.01 in 10.0 mi West 8.1 mph - N/A   Clear
6:00 AM 55.4 °F 53.6 °F 94% 30.02 in 10.0 mi WNW 8.1 mph - N/A   Clear
6:15 AM 55.4 °F 53.6 °F 94% 30.02 in 10.0 mi WNW 9.2 mph - N/A   Clear
6:35 AM 55.4 °F 53.6 °F 94% 30.03 in 10.0 mi WNW 9.2 mph - N/A   Clear
6:55 AM 55.4 °F 53.6 °F 94% 30.03 in 10.0 mi WNW 9.2 mph - N/A   Clear
7:15 AM 55.4 °F 53.6 °F 94% 30.04 in 10.0 mi NW 9.2 mph - N/A   Clear
7:35 AM 55.4 °F 53.6 °F 94% 30.05 in 10.0 mi NW 9.2 mph - N/A   Clear
7:55 AM 57.2 °F 53.6 °F 88% 30.06 in 10.0 mi NW 10.4 mph - N/A   Clear
8:15 AM 57.2 °F 53.6 °F 88% 30.07 in 10.0 mi NW 8.1 mph - N/A   Clear
8:35 AM 59.0 °F 55.4 °F 88% 30.08 in 10.0 mi NW 8.1 mph - N/A   Clear
8:55 AM 59.0 °F 55.4 °F 88% 30.08 in 10.0 mi NNW 6.9 mph - N/A   Clear
9:15 AM 60.8 °F 55.4 °F 82% 30.08 in 10.0 mi NW 9.2 mph - N/A   Clear
9:35 AM 62.6 °F 55.4 °F 77% 30.09 in 10.0 mi NW 9.2 mph - N/A   Clear
9:55 AM 64.4 °F 55.4 °F 73% 30.09 in 10.0 mi NW 9.2 mph - N/A   Clear
10:15 AM 64.4 °F 55.4 °F 73% 30.09 in 10.0 mi NNW 9.2 mph - N/A   Clear
10:35 AM 64.4 °F 55.4 °F 73% 30.09 in 10.0 mi NNW 8.1 mph - N/A   Clear
10:55 AM 66.2 °F 55.4 °F 68% 30.09 in 10.0 mi NNW 9.2 mph - N/A   Clear
11:10 AM 66.2 °F 55.4 °F 68% 30.09 in 10.0 mi NW 9.2 mph - N/A   Clear
11:35 AM 66.2 °F 55.4 °F 68% 30.10 in 10.0 mi NW 9.2 mph - N/A   Clear
11:55 AM 66.2 °F 55.4 °F 68% 30.10 in 10.0 mi NW 6.9 mph - N/A   Clear
12:15 PM 64.4 °F 55.4 °F 73% 30.11 in 10.0 mi NW 6.9 mph - N/A   Mostly Cloudy
12:35 PM 64.4 °F 57.2 °F 77% 30.12 in 10.0 mi West 8.1 mph - N/A   Overcast
12:55 PM 64.4 °F 57.2 °F 77% 30.12 in 10.0 mi WNW 10.4 mph - N/A   Mostly Cloudy
1:15 PM 64.4 °F 57.2 °F 77% 30.11 in 10.0 mi West 8.1 mph - N/A   Mostly Cloudy
1:35 PM 64.4 °F 57.2 °F 77% 30.12 in 10.0 mi West 9.2 mph - N/A   Overcast
1:55 PM 66.2 °F 57.2 °F 73% 30.12 in 10.0 mi WNW 10.4 mph - N/A   Overcast
2:15 PM 66.2 °F 57.2 °F 73% 30.12 in 10.0 mi West 8.1 mph - N/A   Mostly Cloudy
2:35 PM 66.2 °F 57.2 °F 73% 30.12 in 10.0 mi West 9.2 mph - N/A   Mostly Cloudy
2:55 PM 68.0 °F 55.4 °F 64% 30.12 in 10.0 mi West 9.2 mph - N/A   Mostly Cloudy
3:15 PM 66.2 °F 55.4 °F 68% 30.11 in 10.0 mi West 6.9 mph - N/A   Overcast
3:35 PM 68.0 °F 55.4 °F 64% 30.11 in 10.0 mi West 8.1 mph - N/A   Overcast
3:55 PM 68.0 °F 57.2 °F 68% 30.10 in 10.0 mi West 10.4 mph - N/A   Mostly Cloudy
4:15 PM 68.0 °F 55.4 °F 64% 30.10 in 10.0 mi West 9.2 mph - N/A   Scattered Clouds
4:35 PM 68.0 °F 55.4 °F 64% 30.09 in 10.0 mi West 8.1 mph - N/A   Mostly Cloudy
4:55 PM 68.0 °F 55.4 °F 64% 30.09 in 10.0 mi West 12.7 mph - N/A   Mostly Cloudy
5:15 PM 69.8 °F 57.2 °F 64% 30.09 in 10.0 mi West 11.5 mph - N/A   Mostly Cloudy
5:35 PM 69.8 °F 55.4 °F 60% 30.09 in 10.0 mi West 10.4 mph 18.4 mph N/A   Partly Cloudy
5:55 PM 68.0 °F 57.2 °F 68% 30.09 in 10.0 mi West 6.9 mph - N/A   Partly Cloudy
6:15 PM 68.0 °F 59.0 °F 73% 30.08 in 10.0 mi WSW 6.9 mph - N/A   Mostly Cloudy
6:35 PM 66.2 °F 59.0 °F 78% 30.08 in 10.0 mi WSW 8.1 mph - N/A   Mostly Cloudy
6:55 PM 66.2 °F 59.0 °F 78% 30.07 in 10.0 mi WSW 5.8 mph - N/A   Scattered Clouds
7:15 PM 66.2 °F 59.0 °F 78% 30.07 in 10.0 mi WSW 5.8 mph - N/A   Mostly Cloudy
7:55 PM 64.4 °F 59.0 °F 83% 30.06 in 10.0 mi WSW 6.9 mph - N/A   Mostly Cloudy
8:15 PM 62.6 °F 59.0 °F 88% 30.07 in 10.0 mi WSW 6.9 mph - N/A   Scattered Clouds
8:35 PM 60.8 °F 57.2 °F 88% 30.07 in 10.0 mi WSW 5.8 mph - N/A   Partly Cloudy
8:55 PM 59.0 °F 57.2 °F 94% 30.08 in 10.0 mi WSW 8.1 mph - N/A   Partly Cloudy
9:15 PM 59.0 °F 57.2 °F 94% 30.08 in 10.0 mi West 5.8 mph - N/A   Partly Cloudy
9:35 PM 59.0 °F 57.2 °F 94% 30.09 in 10.0 mi Calm Calm - N/A   Partly Cloudy
9:55 PM 59.0 °F 57.2 °F 94% 30.09 in 10.0 mi WSW 6.9 mph - N/A   Scattered Clouds
10:15 PM 57.2 °F 55.4 °F 94% 30.10 in 10.0 mi West 5.8 mph - N/A   Scattered Clouds
10:40 PM 57.2 °F 55.4 °F 94% 30.10 in 10.0 mi West 5.8 mph - N/A   Partly Cloudy
11:00 PM 57.2 °F 55.4 °F 94% 30.10 in 10.0 mi West 5.8 mph - N/A   Clear
11:20 PM 55.4 °F 55.4 °F 100% 30.10 in 10.0 mi Calm Calm - N/A   Clear
11:35 PM 55.4 °F 55.4 °F 100% 30.11 in 10.0 mi West 6.9 mph - N/A   Clear
11:55 PM 57.2 °F 55.4 °F 94% 30.10 in 10.0 mi Calm Calm - N/A   Clear